Location: Bacea
(45.9500°N, 22.6667°E)
Time: 09:48:31
(UTC+00:00)

H-2A R/B - Pass Details

Date: 16 October 2021
Orbit: 577 x 654 km, 98.5° (Epoch: 02 December)

Event Time Altitude Azimuth Distance (km) Brightness Sun altitude
Rises 18:12:47 0° 5° (N) 2,805 5.6 -26.9°
Reaches altitude 10° 18:15:05 10° 356° (N) 1,901 4.8 -27.3°
Maximum altitude 18:18:45 32° 292° (WNW) 1,000 3.6 -27.9°
Drops below altitude 10° 18:22:26 10° 229° (SW) 1,903 4.9 -28.5°
Sets 18:24:44 0° 219° (SW) 2,807 5.7 -28.9°
